User: anonymous   Login
Location: Bittkow
(50.3000°N, 19.0000°E)
Time: 05:16:30
(UTC+00:00)
Language:

Cosmos 1844 Rocket - Orbit

View from above orbital plane
View from above orbital plane
View from above satellite
View from above satellite

Ground track
Ground track

The orbit data is extracted from the following two-line orbital elements,

1 17974U 87041B   20339.54662649 -.00000176  00000-0 -63221-4 0  9991
2 17974  71.0069 121.6839 0016324 261.2201 164.4455 14.17269514736109
Epoch (UTC): 04 December 2020 13:07:08
Eccentricity: 0.0016324
inclination: 71.0069°
perigee height: 823 km
apogee height: 846 km
right ascension of ascending node: 121.6839°
argument of perigee: 261.2201°
revolutions per day: 14.17269514
mean anomaly at epoch: 164.4455°
orbit number at epoch: 73610

The dashed part of the orbit path shows where the satellite is in the earth's shadow,  

DLR